Time,TemperatureF,DewpointF,PressureIn,WindDirection,WindDirectionDegrees,WindSpeedMPH,WindSpeedGustMPH,Humidity,HourlyPrecipIn,Conditions,Clouds,dailyrainin,SoftwareType,DateUTC
2013-12-03 00:01:00,65.1,64.0,29.90,SE,141,0.0,0.0,96,0.00,,,0.00,weatherlink.com 1.10,2013-12-03 05:01:00,
2013-12-03 00:16:00,64.9,64.0,29.90,SE,132,0.0,1.0,96,0.00,,,0.00,weatherlink.com 1.10,2013-12-03 05:16:00,
2013-12-03 00:31:00,65.2,64.0,29.90,NE,37,0.0,3.0,96,0.00,,,0.00,weatherlink.com 1.10,2013-12-03 05:31:00,
2013-12-03 00:46:00,65.3,64.0,29.90,NE,34,0.0,0.0,96,0.00,,,0.00,weatherlink.com 1.10,2013-12-03 05:46:00,
2013-12-03 01:01:00,65.4,64.0,29.91,NW,308,2.0,2.0,96,0.00,,,0.00,weatherlink.com 1.10,2013-12-03 06:01:00,
2013-12-03 01:16:00,65.4,64.0,29.92,NW,309,3.0,5.0,96,0.00,,,0.00,weatherlink.com 1.10,2013-12-03 06:16:00,
2013-12-03 01:31:00,65.2,64.0,29.91,NW,304,0.0,3.0,96,0.00,,,0.00,weatherlink.com 1.10,2013-12-03 06:31:00,
2013-12-03 01:47:00,65.0,64.0,29.91,NNW,340,0.0,2.0,96,0.00,,,0.00,weatherlink.com 1.10,2013-12-03 06:47:00,
2013-12-03 02:02:00,65.0,64.0,29.91,North,356,2.0,3.0,96,0.00,,,0.00,weatherlink.com 1.10,2013-12-03 07:02:00,
2013-12-03 02:17:00,64.7,64.0,29.91,North,11,3.0,3.0,96,0.00,,,0.00,weatherlink.com 1.10,2013-12-03 07:17:00,
2013-12-03 02:32:00,64.3,63.0,29.90,NE,45,0.0,3.0,95,0.00,,,0.00,weatherlink.com 1.10,2013-12-03 07:32:00,
2013-12-03 02:47:00,64.4,63.0,29.90,ENE,57,1.0,1.0,94,0.00,,,0.00,weatherlink.com 1.10,2013-12-03 07:47:00,
2013-12-03 03:02:00,64.4,62.0,29.90,East,81,0.0,1.0,93,0.00,,,0.00,weatherlink.com 1.10,2013-12-03 08:02:00,
2013-12-03 03:17:00,64.3,62.0,29.90,ENE,74,0.0,1.0,93,0.00,,,0.00,weatherlink.com 1.10,2013-12-03 08:17:00,
2013-12-03 03:32:00,64.2,62.0,29.90,NNW,330,0.0,0.0,93,0.00,,,0.00,weatherlink.com 1.10,2013-12-03 08:32:00,
2013-12-03 03:47:00,64.3,62.0,29.91,NE,52,0.0,0.0,92,0.00,,,0.00,weatherlink.com 1.10,2013-12-03 08:47:00,
2013-12-03 04:02:00,64.3,62.0,29.91,NE,52,0.0,0.0,92,0.00,,,0.00,weatherlink.com 1.10,2013-12-03 09:02:00,
2013-12-03 04:17:00,64.0,62.0,29.91,NE,50,0.0,1.0,92,0.00,,,0.00,weatherlink.com 1.10,2013-12-03 09:17:00,
2013-12-03 04:32:00,63.6,61.0,29.91,NNE,20,0.0,1.0,92,0.00,,,0.00,weatherlink.com 1.10,2013-12-03 09:32:00,
2013-12-03 04:47:00,63.3,61.0,29.91,NE,49,0.0,0.0,93,0.00,,,0.00,weatherlink.com 1.10,2013-12-03 09:47:00,
2013-12-03 05:02:00,63.0,61.0,29.90,ENE,58,1.0,2.0,93,0.00,,,0.00,weatherlink.com 1.10,2013-12-03 10:02:00,
2013-12-03 05:17:00,63.0,61.0,29.90,ENE,63,1.0,2.0,94,0.00,,,0.00,weatherlink.com 1.10,2013-12-03 10:17:00,
2013-12-03 05:32:00,63.0,61.0,29.91,NE,44,0.0,2.0,94,0.00,,,0.00,weatherlink.com 1.10,2013-12-03 10:32:00,
2013-12-03 05:47:00,63.0,62.0,29.91,ENE,63,1.0,3.0,95,0.00,,,0.00,weatherlink.com 1.10,2013-12-03 10:47:00,
2013-12-03 06:02:00,62.9,62.0,29.92,ENE,70,1.0,2.0,95,0.00,,,0.00,weatherlink.com 1.10,2013-12-03 11:02:00,
2013-12-03 06:17:00,62.9,62.0,29.92,ENE,68,2.0,3.0,96,0.00,,,0.00,weatherlink.com 1.10,2013-12-03 11:17:00,
2013-12-03 06:32:00,63.0,62.0,29.93,ENE,63,0.0,2.0,96,0.00,,,0.00,weatherlink.com 1.10,2013-12-03 11:32:00,
2013-12-03 06:47:00,63.2,62.0,29.93,ENE,64,0.0,1.0,96,0.00,,,0.00,weatherlink.com 1.10,2013-12-03 11:47:00,
2013-12-03 07:02:00,63.2,62.0,29.93,ENE,63,2.0,3.0,96,0.00,,,0.00,weatherlink.com 1.10,2013-12-03 12:02:00,
2013-12-03 07:17:00,63.0,62.0,29.94,ENE,65,0.0,2.0,96,0.00,,,0.00,weatherlink.com 1.10,2013-12-03 12:17:00,
2013-12-03 07:32:00,63.0,62.0,29.94,ENE,68,2.0,2.0,96,0.00,,,0.00,weatherlink.com 1.10,2013-12-03 12:32:00,
2013-12-03 07:47:00,63.4,63.0,29.95,ENE,72,1.0,2.0,97,0.00,,,0.00,weatherlink.com 1.10,2013-12-03 12:47:00,
2013-12-03 08:02:00,64.0,63.0,29.95,ENE,58,3.0,3.0,97,0.00,,,0.00,weatherlink.com 1.10,2013-12-03 13:02:00,
2013-12-03 08:17:00,64.6,64.0,29.95,NE,54,4.0,6.0,96,0.00,,,0.00,weatherlink.com 1.10,2013-12-03 13:17:00,
2013-12-03 08:32:00,65.5,64.0,29.96,ENE,70,2.0,6.0,93,0.00,,,0.00,weatherlink.com 1.10,2013-12-03 13:32:00,
2013-12-03 08:47:00,66.8,64.0,29.96,ENE,66,4.0,5.0,89,0.00,,,0.00,weatherlink.com 1.10,2013-12-03 13:47:00,
2013-12-03 09:02:00,67.6,63.0,29.96,ENE,61,1.0,7.0,86,0.00,,,0.00,weatherlink.com 1.10,2013-12-03 14:02:00,
2013-12-03 09:17:00,68.6,63.0,29.97,ENE,68,0.0,5.0,81,0.00,,,0.00,weatherlink.com 1.10,2013-12-03 14:17:00,
2013-12-03 09:32:00,69.5,63.0,29.98,ESE,117,3.0,6.0,79,0.00,,,0.00,weatherlink.com 1.10,2013-12-03 14:32:00,
2013-12-03 09:47:00,70.5,63.0,29.97,East,79,2.0,7.0,76,0.00,,,0.00,weatherlink.com 1.10,2013-12-03 14:47:00,
2013-12-03 10:02:00,70.8,62.0,29.97,NE,46,4.0,6.0,73,0.00,,,0.00,weatherlink.com 1.10,2013-12-03 15:02:00,
2013-12-03 10:17:00,71.7,63.0,29.97,ESE,115,2.0,7.0,73,0.00,,,0.00,weatherlink.com 1.10,2013-12-03 15:17:00,
2013-12-03 10:32:00,73.2,63.0,29.97,SSW,201,0.0,7.0,70,0.00,,,0.00,weatherlink.com 1.10,2013-12-03 15:32:00,
2013-12-03 10:47:00,73.9,64.0,29.97,South,186,0.0,7.0,70,0.00,,,0.00,weatherlink.com 1.10,2013-12-03 15:47:00,
2013-12-03 11:02:00,75.0,64.0,29.96,ESE,120,4.0,6.0,68,0.00,,,0.00,weatherlink.com 1.10,2013-12-03 16:02:00,
2013-12-03 11:17:00,75.8,65.0,29.96,SSE,148,3.0,7.0,69,0.00,,,0.00,weatherlink.com 1.10,2013-12-03 16:17:00,
2013-12-03 11:32:00,76.4,65.0,29.96,SE,141,5.0,9.0,68,0.00,,,0.00,weatherlink.com 1.10,2013-12-03 16:32:00,
2013-12-03 11:47:00,75.7,66.0,29.96,SE,143,3.0,8.0,72,0.00,,,0.00,weatherlink.com 1.10,2013-12-03 16:47:00,
2013-12-03 12:02:00,76.2,66.0,29.95,SE,143,2.0,9.0,71,0.00,,,0.00,weatherlink.com 1.10,2013-12-03 17:02:00,
2013-12-03 12:17:00,76.3,67.0,29.95,SSW,203,5.0,12.0,72,0.00,,,0.00,weatherlink.com 1.10,2013-12-03 17:17:00,
2013-12-03 12:33:00,77.8,68.0,29.94,South,173,6.0,13.0,71,0.00,,,0.00,weatherlink.com 1.10,2013-12-03 17:33:00,
2013-12-03 12:48:00,77.8,67.0,29.94,South,174,4.0,13.0,70,0.00,,,0.00,weatherlink.com 1.10,2013-12-03 17:48:00,
2013-12-03 13:03:00,77.3,67.0,29.93,SSW,193,7.0,11.0,71,0.00,,,0.00,weatherlink.com 1.10,2013-12-03 18:03:00,
2013-12-03 13:18:00,77.0,67.0,29.93,SW,222,7.0,12.0,72,0.00,,,0.00,weatherlink.com 1.10,2013-12-03 18:18:00,
2013-12-03 13:33:00,77.3,67.0,29.93,South,180,7.0,14.0,71,0.00,,,0.00,weatherlink.com 1.10,2013-12-03 18:33:00,
2013-12-03 13:48:00,78.0,68.0,29.92,South,170,3.0,14.0,71,0.00,,,0.00,weatherlink.com 1.10,2013-12-03 18:48:00,
2013-12-03 14:03:00,78.0,68.0,29.92,SSE,153,8.0,13.0,71,0.00,,,0.00,weatherlink.com 1.10,2013-12-03 19:03:00,
2013-12-03 14:18:00,77.3,67.0,29.92,SSE,159,9.0,11.0,70,0.00,,,0.00,weatherlink.com 1.10,2013-12-03 19:18:00,
2013-12-03 14:33:00,77.8,67.0,29.92,SE,126,7.0,16.0,70,0.00,,,0.00,weatherlink.com 1.10,2013-12-03 19:33:00,
2013-12-03 14:48:00,77.4,67.0,29.91,SSE,153,6.0,12.0,70,0.00,,,0.00,weatherlink.com 1.10,2013-12-03 19:48:00,
2013-12-03 15:03:00,77.9,67.0,29.91,SSE,149,9.0,12.0,70,0.00,,,0.00,weatherlink.com 1.10,2013-12-03 20:03:00,
2013-12-03 15:18:00,77.3,68.0,29.90,SSW,203,4.0,12.0,72,0.00,,,0.00,weatherlink.com 1.10,2013-12-03 20:18:00,
2013-12-03 15:33:00,77.1,67.0,29.91,South,184,6.0,12.0,72,0.00,,,0.00,weatherlink.com 1.10,2013-12-03 20:33:00,
2013-12-03 15:48:00,77.0,68.0,29.91,SSW,197,7.0,13.0,73,0.00,,,0.00,weatherlink.com 1.10,2013-12-03 20:48:00,
2013-12-03 16:03:00,76.7,67.0,29.91,SSE,150,8.0,11.0,73,0.00,,,0.00,weatherlink.com 1.10,2013-12-03 21:03:00,
2013-12-03 16:18:00,76.2,67.0,29.91,SSE,156,4.0,12.0,74,0.00,,,0.00,weatherlink.com 1.10,2013-12-03 21:18:00,
2013-12-03 16:33:00,75.7,67.0,29.91,South,169,5.0,10.0,74,0.00,,,0.00,weatherlink.com 1.10,2013-12-03 21:33:00,
2013-12-03 16:48:00,75.4,67.0,29.91,South,188,7.0,9.0,76,0.00,,,0.00,weatherlink.com 1.10,2013-12-03 21:48:00,
2013-12-03 17:03:00,74.7,67.0,29.92,South,171,6.0,9.0,77,0.00,,,0.00,weatherlink.com 1.10,2013-12-03 22:03:00,
2013-12-03 17:18:00,74.0,67.0,29.92,South,184,2.0,9.0,78,0.00,,,0.00,weatherlink.com 1.10,2013-12-03 22:18:00,
2013-12-03 17:33:00,72.9,66.0,29.92,SE,142,1.0,5.0,79,0.00,,,0.00,weatherlink.com 1.10,2013-12-03 22:33:00,
2013-12-03 17:48:00,71.8,66.0,29.92,SE,140,0.0,3.0,81,0.00,,,0.00,weatherlink.com 1.10,2013-12-03 22:48:00,
2013-12-03 18:03:00,70.8,66.0,29.93,SE,141,0.0,1.0,84,0.00,,,0.00,weatherlink.com 1.10,2013-12-03 23:03:00,
2013-12-03 18:18:00,70.2,66.0,29.93,SE,136,0.0,1.0,86,0.00,,,0.00,weatherlink.com 1.10,2013-12-03 23:18:00,
2013-12-03 18:33:00,69.8,66.0,29.93,SE,139,0.0,2.0,87,0.00,,,0.00,weatherlink.com 1.10,2013-12-03 23:33:00,
2013-12-03 18:48:00,69.7,66.0,29.95,SSE,153,0.0,2.0,87,0.00,,,0.00,weatherlink.com 1.10,2013-12-03 23:48:00,
2013-12-03 19:03:00,69.4,65.0,29.95,SE,140,0.0,2.0,87,0.00,,,0.00,weatherlink.com 1.10,2013-12-04 00:03:00,
2013-12-03 19:19:00,69.3,66.0,29.95,SSE,148,1.0,3.0,89,0.00,,,0.00,weatherlink.com 1.10,2013-12-04 00:19:00,
2013-12-03 19:34:00,69.1,66.0,29.96,SE,134,0.0,3.0,90,0.00,,,0.00,weatherlink.com 1.10,2013-12-04 00:34:00,
2013-12-03 19:49:00,68.7,66.0,29.96,SE,139,0.0,2.0,90,0.00,,,0.00,weatherlink.com 1.10,2013-12-04 00:49:00,
2013-12-03 20:04:00,68.4,66.0,29.96,SE,131,1.0,2.0,91,0.00,,,0.00,weatherlink.com 1.10,2013-12-04 01:04:00,
2013-12-03 20:19:00,68.6,66.0,29.97,SSE,148,0.0,3.0,91,0.00,,,0.00,weatherlink.com 1.10,2013-12-04 01:19:00,
2013-12-03 20:34:00,68.5,66.0,29.97,SE,134,0.0,3.0,91,0.00,,,0.00,weatherlink.com 1.10,2013-12-04 01:34:00,
2013-12-03 20:49:00,68.2,66.0,29.96,SE,142,0.0,2.0,91,0.00,,,0.00,weatherlink.com 1.10,2013-12-04 01:49:00,
2013-12-03 21:04:00,67.9,65.0,29.96,SE,142,0.0,2.0,91,0.00,,,0.00,weatherlink.com 1.10,2013-12-04 02:04:00,
2013-12-03 21:19:00,67.7,65.0,29.97,SE,140,0.0,1.0,91,0.00,,,0.00,weatherlink.com 1.10,2013-12-04 02:19:00,
2013-12-03 21:34:00,67.5,65.0,29.97,SE,138,0.0,1.0,91,0.00,,,0.00,weatherlink.com 1.10,2013-12-04 02:34:00,
2013-12-03 21:49:00,67.5,65.0,29.97,SE,145,0.0,1.0,91,0.00,,,0.00,weatherlink.com 1.10,2013-12-04 02:49:00,
2013-12-03 22:04:00,67.7,65.0,29.97,SE,130,0.0,1.0,91,0.00,,,0.00,weatherlink.com 1.10,2013-12-04 03:04:00,
2013-12-03 22:19:00,67.7,65.0,29.97,SE,138,0.0,2.0,90,0.00,,,0.00,weatherlink.com 1.10,2013-12-04 03:19:00,
2013-12-03 22:34:00,67.6,65.0,29.97,SSE,148,1.0,2.0,90,0.00,,,0.00,weatherlink.com 1.10,2013-12-04 03:34:00,
2013-12-03 22:49:00,67.9,65.0,29.97,SE,143,2.0,5.0,90,0.00,,,0.00,weatherlink.com 1.10,2013-12-04 03:49:00,
2013-12-03 23:04:00,68.1,65.0,29.97,SE,143,2.0,5.0,90,0.00,,,0.00,weatherlink.com 1.10,2013-12-04 04:04:00,
2013-12-03 23:19:00,68.1,65.0,29.98,SE,137,0.0,4.0,90,0.00,,,0.00,weatherlink.com 1.10,2013-12-04 04:19:00,
2013-12-03 23:34:00,68.1,65.0,29.97,SSE,148,3.0,4.0,90,0.00,,,0.00,weatherlink.com 1.10,2013-12-04 04:34:00,
2013-12-03 23:49:00,68.1,65.0,29.97,SE,141,0.0,3.0,90,0.00,,,0.00,weatherlink.com 1.10,2013-12-04 04:49:00,